Gaylord, MI

5:00 PM EDT on June 26, 2017 (GMT -0400)
Otsego County

Weather History for KGLR - November, 2012

Change the Weather History Date:

Wednesday, November 7, 2012

  Actual Average Record
Temperature  
Mean Temperature 34 °F -  
Max Temperature 39 °F 44 °F 69 °F (1975)
Min Temperature 28 °F 27 °F 4 °F (1991)
Degree Days  
Heating Degree Days 32    
Moisture  
Dew Point 26 °F    
Average Humidity 75    
Maximum Humidity 88    
Minimum Humidity 60    
Precipitation  
Precipitation 0.00 in - - ()
Sea Level Pressure  
Sea Level Pressure 30.12 in    
Wind  
Wind Speed 4 mph (SE)    
Max Wind Speed 8 mph    
Max Gust Speed -    
Visibility 10 miles    
Events      
Averages and records for this station are not official NWS values.
T = Trace of Precipitation, MM = Missing Value Source: NWS Daily Summary

Daily Weather History Graph

Daily Weather History Graph

Search for Another Location

Airport or City:

Trip Planner

Search our weather history database for the weather conditions in past years. The results will help you decide how hot, cold, wet, or windy it might be!

Date:

Astronomy

Nov. 07, 2012 Rise Set
Actual Time 7:26 AM EST 5:18 PM EST
Civil Twilight 6:55 AM EST 5:49 PM EST
Nautical Twilight 6:19 AM EST 6:24 PM EST
Astronomical Twilight 5:45 AM EST 6:58 PM EST
Moon 12:01 AM EST (11/7) 1:43 PM EST (11/7)
Length of Visible Light 10h 54m
Length of Day
9h 52m
Last Quarter, 43% of the Moon is Illuminated
Nov 7
Last Quarter
Nov 13
New
Nov 20
First Quarter
Nov 28
Full
Dec 6
Last Quarter

Hourly Weather History & Observations

Time (EST) Temp. Windchill Dew Point Humidity Pressure Visibility Wind Dir Wind Speed Gust Speed Precip Events Conditions
12:53 AM 33.1 °F 26.9 °F 26.1 °F 75% 30.04 in 10.0 mi SE 6.9 mph - N/A   Overcast
1:53 AM 33.1 °F 27.7 °F 26.1 °F 75% 30.05 in 10.0 mi SE 5.8 mph - N/A   Overcast
2:53 AM 30.9 °F 26.2 °F 26.1 °F 82% 30.06 in 10.0 mi ESE 4.6 mph - N/A   Overcast
3:53 AM 28.9 °F 25.2 °F 25.0 °F 85% 30.06 in 10.0 mi SE 3.5 mph - N/A   Mostly Cloudy
4:53 AM 28.9 °F 23.9 °F 25.0 °F 85% 30.07 in 10.0 mi SE 4.6 mph - N/A   Mostly Cloudy
6:11 AM 30.2 °F 24.3 °F 26.6 °F 86% 30.04 in 10.0 mi ESE 5.8 mph - N/A   Overcast
6:53 AM 30.9 °F 26.2 °F 26.1 °F 82% 30.11 in 10.0 mi ESE 4.6 mph - N/A   Overcast
7:53 AM 30.9 °F 27.5 °F 27.0 °F 85% 30.13 in 10.0 mi ESE 3.5 mph - N/A   Overcast
8:53 AM 33.1 °F 30.0 °F 27.0 °F 78% 30.13 in 10.0 mi SE 3.5 mph - N/A   Overcast
9:53 AM 35.1 °F 32.2 °F 28.0 °F 76% 30.14 in 10.0 mi East 3.5 mph - N/A   Overcast
10:36 AM 37.4 °F 33.8 °F 28.4 °F 70% 30.09 in 10.0 mi SSE 4.6 mph - N/A   Scattered Clouds
10:53 AM 37.9 °F 32.7 °F 27.0 °F 65% 30.14 in 10.0 mi SE 6.9 mph - N/A   Clear
11:23 AM 37.4 °F 33.8 °F 26.6 °F 65% 30.11 in 10.0 mi Variable 4.6 mph - N/A   Mostly Cloudy
11:53 AM 37.9 °F 32.1 °F 26.1 °F 62% 30.15 in 10.0 mi East 8.1 mph - N/A   Overcast
12:53 PM 37.9 °F 32.7 °F 27.0 °F 65% 30.14 in 10.0 mi ESE 6.9 mph - N/A   Overcast
1:53 PM 37.9 °F 32.7 °F 27.0 °F 65% 30.13 in 10.0 mi SE 6.9 mph - N/A   Overcast
2:53 PM 39.0 °F 36.8 °F 27.0 °F 62% 30.14 in 10.0 mi South 3.5 mph - N/A   Overcast
3:53 PM 39.0 °F - 26.1 °F 60% 30.14 in 10.0 mi Calm Calm - N/A   Overcast
4:53 PM 39.0 °F 36.8 °F 27.0 °F 62% 30.14 in 10.0 mi East 3.5 mph - N/A   Mostly Cloudy
5:07 PM 37.4 °F 34.9 °F 26.6 °F 65% 30.09 in 10.0 mi ESE 3.5 mph - N/A   Scattered Clouds
5:53 PM 35.1 °F - 26.1 °F 70% 30.16 in 10.0 mi Calm Calm - N/A   Clear
6:53 PM 34.0 °F - 26.1 °F 73% 30.17 in 10.0 mi Calm Calm - N/A   Clear
7:53 PM 28.9 °F - 25.0 °F 85% 30.19 in 10.0 mi Calm Calm - N/A   Mostly Cloudy
8:53 PM 28.0 °F - 24.1 °F 85% 30.19 in 10.0 mi Calm Calm - N/A   Clear
9:53 PM 30.0 °F - 24.1 °F 79% 30.19 in 10.0 mi Calm Calm - N/A   Clear
10:53 PM 28.0 °F - 25.0 °F 88% 30.18 in 10.0 mi Calm Calm - N/A   Clear
11:53 PM 28.0 °F - 25.0 °F 88% 30.18 in 10.0 mi Calm Calm - N/A   Clear